[[{"header":{"parameterUnit":"m.s-1","parameterCategory":1,"la1":30.2991,"la2":30.254,"lo1":-89.0895,"lo2":-89.0444,"dy":0.0017,"dx":0.0017,"nx":28,"ny":28,"refTime":"2023-07-25T21:00:00:Z","depth":0,"parameterNumber":2,"parameterNumberName":"U-component_of_WINDS"},"data":[0,0,0,0,0,0,0,0,0,0,0,0,0,0,0,0,0,0,0,0,0,0,0,0,0,0,0,0,0,0,0,0,0,0,0,0,0,0,0,0,0,0,0,0,0,0,0,0,0,0,0,0,0,0,0,0,0,0,1.9201,1.9201,0,1.925,1.925,1.9251,1.9209,1.9207,1.9205,1.9204,1.9254,1.9257,1.926,0,0,0,0,0,0,0,0,0,0,0,0,0,1.9069,1.9072,1.92,1.9201,1.9202,1.925,1.925,1.9251,1.9209,1.9207,1.9205,1.9203,1.9253,1.9256,1.926,0,0,0,0,0,0,0,0,0,0,0,0,0,1.9123,1.9072,1.92,1.9187,1.9186,1.925,1.925,1.9251,1.921,1.9207,1.9204,1.9202,1.9252,1.9256,1.926,1.934,0,0,1.9274,1.9276,0,0,0,0,0,0,0,0,1.912,1.9128,1.9188,1.9188,1.9187,1.922,1.9222,1.9281,1.921,1.9201,1.9204,1.9201,1.9245,1.925,1.9265,1.9343,1.9345,1.9274,1.9277,1.9279,1.928,0,0,0,0,0,0,0,1.9116,1.9125,1.922,1.9189,1.9188,1.9178,1.9182,1.9233,1.9237,1.9201,1.9198,1.9205,1.9244,1.926,1.9265,1.9345,1.9274,1.9278,1.9281,1.9283,1.949,1.9492,0,0,0,0,0,0,1.9114,1.9123,1.9218,1.9221,1.9146,1.9182,1.9187,1.9212,1.9236,1.9237,1.9207,1.9203,1.9254,1.926,1.9267,1.9361,1.9279,1.9283,1.9286,1.9487,1.949,1.9493,0,0,0,0,0,0,1.9111,1.9123,1.9216,1.9171,1.9182,1.9187,1.9215,1.9215,1.9231,1.924,1.9241,1.9223,1.9252,1.9261,1.9322,1.9362,1.9285,1.9289,1.9483,1.9488,1.9492,1.955,0,0,0,0,0,0,1.9108,1.9122,1.9153,1.9172,1.9185,1.9271,1.9218,1.9218,1.9239,1.9234,1.9256,1.9257,1.9251,1.9316,1.9326,1.9367,1.9293,1.948,1.9485,1.949,1.9545,1.9556,1.9566,0,0,0,0,0,1.9103,1.9168,1.9155,1.9167,1.9224,1.9274,1.9281,1.9273,1.9242,1.9273,1.9279,1.9256,1.9356,1.9322,1.9334,1.9376,1.9477,1.9484,1.949,1.954,1.9554,1.9565,0,0,0,0,0,0,1.9153,1.917,1.9156,1.9229,1.925,1.9266,1.9305,1.9288,1.9318,1.9312,1.93,1.9306,1.937,1.9379,1.9341,1.9454,1.9412,1.9421,1.9446,1.9459,1.9469,1.9465,1.9296,0,0,0,0,0,1.9173,1.9212,1.9225,1.9288,1.9299,1.93,1.9322,1.9314,1.9335,1.9344,1.9354,1.9376,1.9412,1.9436,1.947,1.9546,1.9549,1.9581,1.9591,1.96,1.9608,1.9647,1.9661,1.9514,1.9514,1.9514,0,0,1.9214,1.9228,1.9253,1.9298,1.9314,1.9354,1.9308,1.9353,1.9383,1.9351,1.9409,1.9417,1.944,1.9509,1.954,1.9519,1.9649,1.9608,1.9615,1.9618,1.9655,1.9669,1.9681,1.9519,1.9518,1.9517,0,0,1.9308,1.9324,1.9377,1.9393,1.9417,1.9417,1.943,1.9449,1.9453,1.9511,1.9488,1.9523,1.9585,1.9603,1.962,1.972,1.97,1.9731,1.9785,1.9824,1.9836,1.9846,1.988,1.9893,1.9739,1.9739,1.9739,0,1.9356,1.9417,1.9407,1.9453,1.9473,1.9446,1.9499,1.9515,1.9549,1.9564,1.954,1.9617,1.9631,1.9702,1.9727,1.9742,1.9755,1.9728,1.9835,1.9845,1.9854,1.9887,1.99,1.9743,1.9742,1.9742,1.9741,0,1.9473,1.9516,1.9556,1.9589,1.9613,1.9663,1.966,1.9686,1.9676,1.9678,1.9737,1.9753,1.9788,1.9805,1.9796,1.9875,1.9861,1.9836,1.9793,1.9872,1.9902,1.9915,1.9748,1.9746,1.9745,1.9744,0,0,1.9602,1.9628,1.9643,1.9657,1.968,1.9713,1.9761,1.9796,1.9818,1.9842,1.9881,1.9935,1.9911,1.9931,1.9923,1.9957,2.0034,1.9928,1.9928,1.9946,2.0121,2.0139,2.0153,2.0021,2.0023,2.0025,2.0118,0,1.9697,1.978,1.9772,1.9852,1.989,1.9864,1.9906,1.9925,1.9928,1.996,1.9964,2.0001,1.9969,1.998,2.0012,2.0017,2.0068,2.0011,2.0056,2.0058,2.0051,2.017,2.0189,2.0277,2.013,2.0132,2.0134,0,1.9819,1.9847,1.993,1.9947,1.9962,2.0,2.0031,2.0062,2.0083,2.0083,2.0104,2.009,2.0137,2.0094,2.0159,2.0119,2.0138,2.0143,2.0146,2.0149,2.01,2.0175,2.0304,2.0317,2.0153,2.0151,2.015,0,1.9903,1.9961,2.0018,2.0031,2.0052,2.0079,2.0089,2.0107,2.0128,2.0155,2.0168,2.02,2.0218,2.0243,2.0237,2.0206,2.0303,2.0259,2.0304,2.0304,2.0325,2.0323,2.0458,2.0338,2.0338,2.0338,2.0337,0,2.0009,2.0061,2.0056,2.0091,2.0147,2.0137,2.0194,2.02,2.0216,2.0251,2.0231,2.0264,2.0256,2.0288,2.0285,2.0338,2.0347,2.0347,2.0345,2.0349,2.0348,2.036,2.0353,2.0341,2.034,2.034,2.0339,0,2.0112,2.0111,2.0171,2.0186,2.0191,2.0232,2.0245,2.0277,2.0279,2.0323,2.0333,2.0335,2.0373,2.037,2.0413,2.041,2.0476,2.0467,2.0469,2.0466,2.051,2.0506,2.0656,2.0675,2.0544,2.0545,2.0547,0,2.018,2.0219,2.0238,2.026,2.0272,2.0308,2.0329,2.032,2.0343,2.0369,2.0398,2.0433,2.0461,2.0522,2.0527,2.0559,2.0551,2.0601,2.0556,2.0557,2.055,2.0548,2.0551,2.061,2.0612,2.0613,2.0614,0,2.03,2.0297,2.0329,2.036,2.0385,2.0409,2.0431,2.045,2.0444,2.047,2.0508,2.053,2.0572,2.0608,2.0638,2.0647,2.0629,2.0628,2.064,2.0643,2.0642,2.0642,2.0492,2.0625,2.0624,2.0623,2.0622,2.0622,2.0387,2.042,2.0438,2.0473,2.0488,2.0509,2.054,2.0545,2.0576,2.061,2.0603,2.0645,2.0663,2.0702,2.0715,2.0747,2.0729,2.0746,2.0751,2.0755,2.0759,2.0637,2.0753,2.0753,2.0752,2.0752,2.0752,0,2.0505,2.0515,2.0547,2.0578,2.0605,2.0586,2.0609,2.0633,2.067,2.0689,2.0716,2.0759,2.0793,2.08,2.0832,2.0857,2.0849,2.0865,2.0863,2.0865,2.0774,2.076,2.0871,2.0871,2.0871,2.0871,2.0871,2.0871,2.0569,2.0624,2.0623,2.0684,2.0693,2.0734,2.0749,2.0767,2.0782,2.083,2.0858,2.0863,2.0876,2.0909,2.0939,2.094,2.0952,2.0971,2.0969,2.0884,2.0872,2.0861,2.0847,2.0974,2.0975,2.1057,2.1058,2.1059]},{"header":{"parameterUnit":"m.s-1","parameterCategory":1,"la1":30.2991,"la2":30.254,"lo1":-89.0895,"lo2":-89.0444,"dy":0.0017,"dx":0.0017,"nx":28,"ny":28,"refTime":"2023-07-25T21:00:00:Z","depth":0,"parameterNumber":3,"parameterNumberName":"V-component_of_WINDS"},"data":[0,0,0,0,0,0,0,0,0,0,0,0,0,0,0,0,0,0,0,0,0,0,0,0,0,0,0,0,0,0,0,0,0,0,0,0,0,0,0,0,0,0,0,0,0,0,0,0,0,0,0,0,0,0,0,0,0,0,-1.2608,-1.2608,0,-1.2608,-1.2608,-1.2608,-1.2604,-1.2604,-1.2604,-1.2604,-1.2603,-1.2603,-1.2603,0,0,0,0,0,0,0,0,0,0,0,0,0,-1.2606,-1.2606,-1.2608,-1.2608,-1.2608,-1.2608,-1.2608,-1.2608,-1.2604,-1.2604,-1.2604,-1.2604,-1.2603,-1.2603,-1.2603,0,0,0,0,0,0,0,0,0,0,0,0,0,-1.2607,-1.2606,-1.2608,-1.2607,-1.2606,-1.2608,-1.2608,-1.2608,-1.2604,-1.2604,-1.2604,-1.2604,-1.2603,-1.2603,-1.2604,-1.2607,0,0,-1.2604,-1.2604,0,0,0,0,0,0,0,0,-1.2607,-1.2607,-1.2607,-1.2607,-1.2606,-1.2606,-1.2607,-1.2607,-1.2604,-1.2605,-1.2604,-1.2604,-1.2604,-1.2604,-1.2604,-1.2606,-1.2606,-1.2604,-1.2604,-1.2604,-1.2604,0,0,0,0,0,0,0,-1.2607,-1.2607,-1.2608,-1.2607,-1.2607,-1.2606,-1.2606,-1.2607,-1.2605,-1.2605,-1.2605,-1.2605,-1.2604,-1.2604,-1.2604,-1.2606,-1.2604,-1.2604,-1.2604,-1.2604,-1.2611,-1.2611,0,0,0,0,0,0,-1.2607,-1.2607,-1.2608,-1.2608,-1.2606,-1.2606,-1.2606,-1.2606,-1.2605,-1.2605,-1.2605,-1.2605,-1.2604,-1.2604,-1.2604,-1.2608,-1.2604,-1.2604,-1.2604,-1.261,-1.2611,-1.2611,0,0,0,0,0,0,-1.2607,-1.2607,-1.2608,-1.2607,-1.2607,-1.2606,-1.2607,-1.2606,-1.2607,-1.2605,-1.2605,-1.2605,-1.2604,-1.2604,-1.2606,-1.2608,-1.2604,-1.2604,-1.261,-1.2611,-1.2611,-1.2614,0,0,0,0,0,0,-1.2607,-1.2607,-1.2608,-1.2607,-1.2607,-1.261,-1.2607,-1.2606,-1.2607,-1.2606,-1.2606,-1.2605,-1.2604,-1.2606,-1.2606,-1.2608,-1.2604,-1.261,-1.261,-1.2611,-1.2614,-1.2614,-1.2615,0,0,0,0,0,-1.2607,-1.2609,-1.2608,-1.2608,-1.2609,-1.261,-1.261,-1.2608,-1.2607,-1.2608,-1.2607,-1.2605,-1.2607,-1.2606,-1.2606,-1.2608,-1.261,-1.261,-1.2611,-1.2614,-1.2614,-1.2615,0,0,0,0,0,0,-1.261,-1.2609,-1.2608,-1.261,-1.261,-1.2609,-1.2611,-1.2609,-1.261,-1.2609,-1.2607,-1.2607,-1.2609,-1.2609,-1.2607,-1.2611,-1.2608,-1.2609,-1.2611,-1.2611,-1.2612,-1.2612,-1.2604,0,0,0,0,0,-1.2611,-1.2612,-1.2611,-1.2613,-1.2613,-1.2612,-1.2612,-1.2611,-1.2611,-1.2611,-1.261,-1.261,-1.2611,-1.2611,-1.2611,-1.2614,-1.2614,-1.2615,-1.2616,-1.2616,-1.2616,-1.2617,-1.2618,-1.2612,-1.2612,-1.2612,0,0,-1.2613,-1.2613,-1.2614,-1.2614,-1.2614,-1.2615,-1.2612,-1.2613,-1.2614,-1.2611,-1.2613,-1.2612,-1.2612,-1.2614,-1.2615,-1.2613,-1.2618,-1.2616,-1.2617,-1.2617,-1.2618,-1.2618,-1.2619,-1.2612,-1.2612,-1.2612,0,0,-1.2618,-1.2618,-1.2619,-1.2619,-1.2619,-1.2618,-1.2618,-1.2618,-1.2617,-1.2619,-1.2617,-1.2617,-1.2618,-1.2618,-1.2618,-1.2622,-1.2621,-1.2623,-1.2625,-1.2626,-1.2627,-1.2627,-1.2628,-1.2629,-1.2623,-1.2623,-1.2623,0,-1.262,-1.2622,-1.262,-1.2621,-1.2622,-1.2619,-1.2621,-1.2621,-1.2621,-1.2621,-1.262,-1.2621,-1.262,-1.2622,-1.2623,-1.2623,-1.2624,-1.2622,-1.2627,-1.2627,-1.2627,-1.2629,-1.2629,-1.2623,-1.2623,-1.2623,-1.2623,0,-1.2625,-1.2626,-1.2627,-1.2627,-1.2627,-1.2629,-1.2627,-1.2628,-1.2627,-1.2626,-1.2627,-1.2627,-1.2627,-1.2628,-1.2627,-1.2629,-1.2628,-1.2627,-1.2625,-1.2628,-1.2629,-1.263,-1.2623,-1.2623,-1.2623,-1.2623,0,0,-1.2631,-1.263,-1.2631,-1.2631,-1.263,-1.2631,-1.2632,-1.2632,-1.2633,-1.2633,-1.2633,-1.2634,-1.2633,-1.2633,-1.2632,-1.2633,-1.2636,-1.2631,-1.2631,-1.2632,-1.2638,-1.2639,-1.264,-1.2635,-1.2635,-1.2635,-1.2638,0,-1.2635,-1.2637,-1.2636,-1.2638,-1.2639,-1.2637,-1.2638,-1.2637,-1.2637,-1.2637,-1.2636,-1.2637,-1.2635,-1.2635,-1.2636,-1.2635,-1.2637,-1.2635,-1.2635,-1.2635,-1.2635,-1.264,-1.2641,-1.2644,-1.2639,-1.2639,-1.2639,0,-1.264,-1.264,-1.2642,-1.2641,-1.2642,-1.2643,-1.2643,-1.2643,-1.2643,-1.2642,-1.2642,-1.2641,-1.2642,-1.264,-1.2641,-1.264,-1.264,-1.264,-1.264,-1.2639,-1.2637,-1.264,-1.2645,-1.2646,-1.2639,-1.2639,-1.2639,0,-1.2644,-1.2645,-1.2646,-1.2646,-1.2645,-1.2646,-1.2646,-1.2645,-1.2645,-1.2645,-1.2645,-1.2645,-1.2645,-1.2646,-1.2644,-1.2643,-1.2646,-1.2644,-1.2645,-1.2645,-1.2645,-1.2645,-1.2651,-1.2646,-1.2646,-1.2646,-1.2646,0,-1.2648,-1.265,-1.2648,-1.2649,-1.265,-1.2649,-1.265,-1.2649,-1.2649,-1.265,-1.2648,-1.2648,-1.2647,-1.2647,-1.2646,-1.2647,-1.2647,-1.2647,-1.2646,-1.2647,-1.2647,-1.2647,-1.2646,-1.2646,-1.2646,-1.2646,-1.2646,0,-1.2653,-1.2652,-1.2653,-1.2652,-1.2652,-1.2653,-1.2652,-1.2653,-1.2652,-1.2653,-1.2653,-1.2652,-1.2652,-1.2651,-1.2651,-1.265,-1.2652,-1.2651,-1.2652,-1.2651,-1.2653,-1.2653,-1.2658,-1.2658,-1.2654,-1.2654,-1.2654,0,-1.2655,-1.2656,-1.2656,-1.2656,-1.2656,-1.2656,-1.2656,-1.2655,-1.2655,-1.2655,-1.2655,-1.2655,-1.2655,-1.2656,-1.2655,-1.2655,-1.2655,-1.2656,-1.2654,-1.2655,-1.2654,-1.2654,-1.2654,-1.2657,-1.2657,-1.2657,-1.2657,0,-1.266,-1.2659,-1.266,-1.266,-1.266,-1.266,-1.266,-1.266,-1.2659,-1.2659,-1.2659,-1.2659,-1.2659,-1.266,-1.2659,-1.2659,-1.2658,-1.2657,-1.2658,-1.2658,-1.2658,-1.2658,-1.2652,-1.2657,-1.2657,-1.2657,-1.2657,-1.2657,-1.2663,-1.2664,-1.2664,-1.2664,-1.2664,-1.2664,-1.2664,-1.2663,-1.2664,-1.2664,-1.2663,-1.2663,-1.2663,-1.2662,-1.2662,-1.2662,-1.2661,-1.2662,-1.2662,-1.2662,-1.2662,-1.2658,-1.2662,-1.2662,-1.2662,-1.2662,-1.2662,0,-1.2668,-1.2667,-1.2668,-1.2667,-1.2668,-1.2666,-1.2666,-1.2666,-1.2667,-1.2667,-1.2667,-1.2667,-1.2667,-1.2666,-1.2666,-1.2667,-1.2666,-1.2667,-1.2666,-1.2666,-1.2663,-1.2663,-1.2667,-1.2667,-1.2667,-1.2667,-1.2667,-1.2667,-1.267,-1.2671,-1.267,-1.2671,-1.2671,-1.2671,-1.2671,-1.2671,-1.2671,-1.2671,-1.2671,-1.2671,-1.267,-1.267,-1.267,-1.267,-1.267,-1.267,-1.267,-1.2667,-1.2666,-1.2666,-1.2666,-1.267,-1.267,-1.2673,-1.2673,-1.2673]}]]